sat.trackr.live / text

‹ back to catalog

STARLINK-5121

NORAD 53993 · 2022-125AF

PAYLOAD ACTIVE UNKNOWN

§ Identity

Operator
Country
US
Launch date
2022-10-05
Launch site
AFWTR
Launch vehicle
Mass (kg)
RCS (m²)

Purposes: comms

External: N2YO · Heavens-Above · Gunter

§ Orbital elements

Epoch: 2026-09-20T03:41:54.696192Z

Period
95.44 min
Inclination
53.1603°
Eccentricity
0.0001274
Mean motion
15.08834271 rev/d
Perigee alt
538.9 km
Apogee alt
540.6 km
Semi-major
6,917.9 km
B*
5.7386e-5
RAAN
55.2287°
Arg perigee
96.0807°
Mean anomaly
264.0330°
Rev number
21,888

§ Raw data

STARLINK-51211 53993U 22125AF  26263.15410528  .00000625  00000+0  57386-4 0  99912 53993  53.1603  55.2287 0001274  96.0807 264.0330 15.08834271218886

JSON: /api/v1/satellites/53993 · /tle

For live sub-satellite position, see the globe view (requires WebGL).

§ Visibility from observer

Set your observer location to see the next 7 days of passes ≥ 10°. The values pass through the URL so the page stays shareable.

No JS? Fill the form by hand. The geolocation button needs JavaScript.